Terug naar catalogus

THOR ABLESTAR DEB

ActiefLEO
NORAD 561·DEBRIS·🇺🇸 United States

Gelanceerd Jun 29, 1961 vanaf Cape Canaveral Space Force Station

Loading…

Volgende Passages (komende 24 uur)

TLE

VersSource: Space-Track

Epoch: Sep 14, 2026, 10:23 UTC

1 00561U 61015GT  26257.43299981  .00000598  00000-0  23619-2 0  9997
2 00561  67.7558 172.3063 0630188 237.1747 234.0292 12.41558789952201

Volg THOR ABLESTAR DEB in realtime met AllMySat

Download on the App Store